Location: Krasnoyarskiy Pitomnik
(51.1333°N, 71.6167°E)
Time: 10:28:40
(UTC+00:00)

In-Cosmos 22 - Pass Details

Date: 22 October 2021
Orbit: 786 x 876 km, 81.2° (Epoch: 06 December)

Event Time Altitude Azimuth Distance (km) Brightness Sun altitude
Exits shadow 23:30:19 - 186° (S) 3,181 7.0 -22.5°
Reaches altitude 10° 23:32:28 10° 185° (S) 2,342 6.4 -22.2°
Maximum altitude 23:37:43 78° 100° (E) 811 4.1 -21.4°
Drops below altitude 10° 23:43:03 10° 15° (NNE) 2,371 6.8 -20.6°
Sets 23:45:27 0° 14° (NNE) 3,314 7.6 -20.2°
